Theta_e
303 307 305 304 304 306 306 306 307 307 308 308 310 313 314 316 318 320 319 320 323 325 327 329 333 337 339 347 348 348 348 347
305 307 305 306 306 306 306 306 306 307 307 306 307 311 315 318 319 321 322 323 323 324 326 329 334 337 339 340 343 347 349 345
306 304 304 305 306 306 308 307 307 307 310 309 308 311 315 319 320 322 324 324 324 324 324 325 329 334 338 339 345 347 347 341
305 306 305 305 305 306 306 306 306 308 308 309 311 312 314 313 317 317 320 321 322 323 323 326 328 332 321 317 331 345 339 340
302 302 302 304 304 305 305 306 308 307 307 309 309 310 311 314 315 317 316 316 320 321 322 323 327 332 316 312 315 344 340 338
300 300 301 301 303 304 305 306 307 307 306 307 308 308 309 312 314 312 312 315 316 322 324 325 325 330 315 308 311 341 338 337
300 302 301 301 302 303 304 305 306 306 305 305 307 308 308 310 310 310 311 315 317 318 322 326 330 332 309 305 311 338 335 335
301 302 301 301 301 302 303 304 304 304 305 306 306 308 309 309 309 310 311 313 317 319 322 326 324 331 311 302 314 337 334 333
302 302 301 302 303 303 303 304 303 305 306 307 308 308 309 310 311 312 310 314 318 319 322 324 328 330 314 305 309 335 333 331
299 299 299 301 302 302 301 301 304 306 307 307 308 308 309 311 310 311 313 314 315 317 320 323 327 320 309 304 309 319 319 330
299 298 298 300 302 302 301 302 304 306 306 306 307 308 310 310 310 309 310 313 316 318 321 323 325 319 314 304 305 307 310 327
297 297 297 298 301 301 302 303 305 305 306 306 307 308 309 310 312 311 311 314 316 319 321 323 324 318 316 315 314 312 305 308
294 295 296 297 298 299 302 304 305 304 305 306 306 307 308 309 310 312 314 316 316 318 322 326 322 320 319 316 317 321 320 315
291 291 292 294 297 297 300 303 304 305 304 304 305 307 309 310 310 310 297 296 297 301 304 321 325 312 305 305 304 303 302 305
293 294 294 294 294 296 299 302 305 306 305 307 309 307 309 311 312 313 312 302 298 300 303 304 308 307 299 301 302 301 299 309
303 303 305 299 296 296 299 301 304 305 308 302 309 310 311 312 314 316 314 315 313 309 300 306 299 297 298 299 298 305 318 315
302 300 300 299 297 297 301 303 302 305 308 311 310 314 316 315 318 319 317 314 310 308 308 301 298 297 297 297 304 321 320 318
306 302 300 300 300 302 304 305 307 307 312 306 307 318 318 318 319 317 316 317 316 315 313 311 314 316 318 319 318 318 317 317
304 303 304 309 305 307 307 308 314 314 315 315 306 317 319 319 318 317 316 315 315 315 315 308 297 320 319 318 317 318 317 317
297 300 298 300 308 317 319 318 317 316 316 321 321 320 320 318 317 316 315 314 312 311 310 304 297 318 317 317 317 317 317 318
Wind_Speed
9 18 13 9 9 8 7 6 6 6 4 3 4 8 7 8 8 8 8 8 9 9 10 11 14 13 12 14 16 16 15 16
8 8 9 3 3 5 6 6 6 5 3 4 5 5 7 9 10 9 9 9 11 11 11 12 13 14 13 11 13 13 14 11
8 9 5 2 3 3 2 3 0 1 1 4 6 7 5 7 8 8 8 8 11 12 13 13 14 12 11 12 11 13 11 10
8 9 5 7 6 3 4 4 4 3 5 5 5 5 7 6 8 10 8 8 10 13 14 13 14 11 15 16 15 11 9 12
7 5 5 5 3 2 4 5 2 4 5 6 6 8 10 7 9 10 8 8 8 11 15 14 14 11 15 16 17 12 10 9
7 7 7 7 5 6 6 7 8 8 8 8 9 11 13 11 11 12 8 7 9 10 11 13 14 12 14 14 18 13 8 8
15 13 12 9 9 8 9 11 11 11 13 12 11 12 15 13 14 13 8 7 9 9 7 11 11 12 13 16 12 12 7 8
19 18 8 8 7 8 10 14 13 14 15 14 14 14 11 11 13 13 7 7 10 9 7 10 16 10 14 11 12 8 9 7
21 20 14 12 10 11 15 15 16 15 15 16 15 15 12 9 11 10 5 8 8 7 7 7 10 10 5 11 13 9 9 8
22 20 20 19 17 17 19 18 16 15 15 15 15 12 8 10 12 10 6 7 7 7 6 8 6 3 7 11 12 13 12 10
23 21 22 20 19 17 18 17 14 14 14 13 13 12 11 12 9 6 5 5 6 7 7 8 4 4 4 6 9 14 14 10
21 21 21 21 19 17 21 16 15 14 14 13 10 11 12 11 9 6 6 7 6 6 7 9 6 7 6 5 9 12 17 13
21 22 21 22 22 18 18 17 15 15 13 11 10 9 11 9 8 8 8 8 8 8 9 10 11 11 10 11 12 11 10 12
23 23 21 22 19 18 18 14 15 14 11 9 10 9 8 7 8 6 4 5 14 15 17 12 10 12 18 17 18 18 21 17
26 26 24 22 18 17 16 15 14 13 12 11 8 8 7 8 7 6 7 2 7 21 20 18 19 21 18 21 22 21 15 11
15 18 5 14 16 15 15 14 12 11 12 13 9 8 9 9 7 7 7 8 4 7 14 17 21 21 22 22 21 15 8 6
13 17 15 14 14 13 12 10 10 10 8 9 11 10 8 10 8 7 9 9 9 13 12 11 15 22 21 16 12 8 9 7
12 10 9 10 8 8 9 9 9 7 10 6 3 6 6 11 8 9 9 10 12 12 12 11 11 14 11 9 8 8 7 6
14 14 13 3 7 8 9 9 8 3 3 5 4 6 7 12 10 10 10 12 12 12 10 7 11 12 10 9 9 7 6 7
20 18 19 18 13 3 3 8 8 7 9 13 13 11 12 12 12 11 12 12 12 12 11 10 13 10 10 9 8 8 7 7
Wind_Direction
329 348 275 185 177 177 179 195 206 206 215 277 292 257 231 221 224 232 239 246 254 254 255 256 258 242 227 224 220 217 220 216
295 243 286 305 190 183 195 213 198 199 214 239 253 252 249 246 226 222 227 237 245 243 246 249 256 253 250 225 218 214 219 205
238 259 268 309 348 332 40 79 113 201 112 315 301 262 253 252 248 217 220 224 246 248 250 251 250 252 248 241 222 217 210 207
251 261 325 321 318 239 205 202 222 232 226 236 263 293 282 264 264 250 229 231 244 258 254 254 254 249 248 232 229 213 186 204
262 301 287 265 256 262 276 259 243 265 253 238 243 270 272 266 270 266 231 231 233 249 259 251 250 250 238 233 224 202 190 198
308 295 277 261 245 245 239 226 221 222 230 238 243 250 258 253 265 263 256 240 238 241 250 251 248 250 242 225 220 203 183 174
285 273 257 236 231 239 247 253 239 231 233 233 243 249 251 240 250 260 259 254 251 242 237 254 247 248 231 224 198 210 169 163
279 274 257 243 233 218 232 243 238 236 246 248 247 249 239 230 249 246 253 246 258 257 248 250 248 236 233 209 200 158 147 138
277 273 262 251 247 236 239 242 242 244 248 250 243 241 242 222 254 260 231 254 257 255 251 262 257 236 183 192 216 152 148 144
278 275 269 262 255 249 249 245 247 245 243 241 243 232 238 241 237 248 234 234 242 248 249 264 247 153 163 211 173 140 149 143
275 268 270 263 254 241 242 239 235 231 233 234 237 242 239 240 240 235 245 249 249 258 254 248 192 156 171 192 146 138 128 127
273 265 257 256 248 244 248 233 232 230 226 223 219 229 236 237 234 227 221 234 237 240 251 248 171 171 161 135 117 107 97 95
274 267 259 252 248 241 237 227 221 226 223 223 227 232 235 234 231 224 229 234 224 239 245 235 174 172 173 161 141 130 127 129
273 263 253 248 238 231 236 225 216 216 217 222 224 227 229 225 228 234 163 306 275 249 239 202 184 155 154 138 116 117 124 130
275 266 249 233 220 216 220 221 201 204 218 223 215 202 215 225 218 225 249 304 241 206 188 161 155 151 131 125 129 124 131 119
329 331 211 180 181 195 202 204 211 212 216 218 219 216 221 224 222 222 188 192 126 114 79 133 134 125 123 124 124 124 112 101
21 40 67 114 152 174 189 196 201 221 241 216 207 215 218 228 199 137 123 96 188 118 114 82 103 111 115 120 114 114 127 123
19 40 76 100 122 147 170 184 202 226 239 169 185 190 167 129 117 107 134 145 108 109 107 112 120 110 113 102 91 96 100 111
18 37 23 98 132 160 176 195 204 130 134 128 122 162 124 123 121 127 117 100 101 101 97 102 106 111 111 106 103 98 99 103
26 20 12 352 350 49 86 136 162 158 199 144 151 128 116 112 114 107 104 100 97 101 98 83 85 92 96 99 98 91 87 85